User: anonymous   Login
Location: Unspecified
(40.9447°N, 78.9903°W)
Time: 00:21:22
(UTC-05:00)
Language:

Okean 3 - Orbit

View from above orbital plane
View from above orbital plane
View from above satellite
View from above satellite

Ground track
Ground track

The orbit data is extracted from the following two-line orbital elements,

1 21397U 91039A   19344.49739609  .00000216  00000-0  18255-4 0  9996
2 21397  82.5212 357.2459 0019469  85.9470 274.3975 14.92867028544985
Epoch (UTC): 10 December 2019 11:56:15
Eccentricity: 0.0019469
inclination: 82.5212°
perigee height: 575 km
apogee height: 602 km
right ascension of ascending node: 357.2459°
argument of perigee: 85.9470°
revolutions per day: 14.92867028
mean anomaly at epoch: 274.3975°
orbit number at epoch: 54498

The dashed part of the orbit path shows where the satellite is in the earth's shadow,  

DLR